星链-35321(STARLINK-35321)

导读

STARLINK-35321是美国SpaceX公司于2025年10月19日发射的星链低轨通信卫星,属于Starlink星座组网卫星。卫星采用平板设计,搭载以氪为工质的霍尔推进器,配备Ku、Ka波段通信载荷与光学星间链路,依托相控阵技术实现高速通信,支持手机直连与宽带互联网服务,设计使用寿命约5-7年,寿命末期会主动离轨再入大气层烧毁,服务全球覆盖的低空互联网接入。

基本信息
目录编号:
66074
目录名称:
STARLINK-35321
国际标识:
2025-235S
轨道中心:
EARTH
卫星名称:
星链-35321
卫星全名:
星链-35321(STARLINK-35321)
卫星状态:
在轨 (已飞行329 天)
发射日期:
2025-10-19 UTC
国别 :
美国 (US)
星等 :
--
该卫星已列入 空间交会检测服务 Space Conjunction Data Service (SCDS) ,当前飞行风险评估等级: 无高风险
轨道信息
数据来源 国际轨道数据
星历时间: 2026-09-12T07:47:55+0800
1天前
查看轨道信息
半长轴: 6840.783km
偏心率: 0.0000865
轨道倾角: 53.158°
近地点辐角 84.625°
升交点赤经 99.317°
平近点角 275.486°
近地点: 462.054km
远地点: 463.238km
周期: 93.847分钟
每日圈数: 15.344195
详细信息
固有亮度:
5
最大亮度:
2.5
卫星平台:
Starlink V1.0
覆盖范围:
全球
运营商:
太空探索技术公司
运营商所在国:
美国
制造商(研发单位):
太空探索技术公司
制造商所在国:
美国
使用方式:
暂无
卫星简介
Starlink 计划是 SpaceX 推出的全球卫星互联网项目,通过发射低轨道卫星,为全球尤其是偏远地区提供高速、低延迟的互联网服务。自 2019 年起,Starlink 已部署数千颗卫星,旨在缩小全球数字鸿沟,推动互联网普及。该项目还为军事、航空等行业提供通信支持,带来广泛经济效益。
2D轨道图
3D轨道图
轨道高度分析图
轨道倾角分析图
轨道综合分析图
查看轨道综合分析图
交会数据列表
事件ID 空间交会对象 最接近时刻(TCA) 交会距离 交会风险概率(CRP) 交会风险指数(CRI) 操作
CDM_260914-104105-803306-607421
2026-09-14T
10:41:46+0000
1.070 km
极远距离
1.352284E-5 中风险 0.58
CDM_260914-235905-803306-607421
2026-09-14T
23:59:00+0000
1.075 km
极远距离
1.329823E-5 中风险 0.57
CDM_260914-121505-803306-607421
2026-09-14T
12:15:34+0000
1.553 km
极远距离
3.860021E-6 低风险 0.47
CDM_260914-222505-803306-607421
2026-09-14T
22:25:12+0000
1.629 km
极远距离
3.336596E-6 低风险 0.45
与全量物体交会距离演化趋势
与全量物体交会风险概率演化趋势